Terug naar catalogus

OPS 7613

P/L 3

ActiefNavigatieLEO
NORAD 4259·PAYLOAD·🇺🇸 United States

Gelanceerd Sep 30, 1969 vanaf Vandenberg Space Force Base

Loading…

Volgende Passages (komende 24 uur)

TLE

VersSource: Space-Track

Epoch: Sep 14, 2026, 13:21 UTC

1 04259U 69082D   26257.55661517 -.00000013  00000-0  29289-4 0  9992
2 04259  70.0151 304.9663 0019408  25.3156 142.3374 13.95132831994148

Volg OPS 7613 in realtime met AllMySat

Download on the App Store